Find Starlink 37269

NORAD ID: 68621 Int'l Des: 2026-073 Owner: SPXS Country: US Constellation: starlink operational
LEOCIRCULARRETROGRADE

現在のビュー

3D地球を読み込み中...

About Starlink 37269

Starlink 37269 (NORAD 68621) is a starlink constellation satellite (v2 mini) launched Apr 7, 2026 by SPXS of US. It operates in LEO, CIRCULAR, RETROGRADE orbit with a mass of 575.00 kg.

次回通過

Passes for default location (London). Set your location on the main map for personalized predictions.

高度履歴

Loading altitude history...

軌道要素

1 68621U 26073V 26238.08061994 .00015811 00000-0 49068-3 0 9995
2 68621 97.2848 76.4333 0001743 94.3563 265.7879 15.33467739 21841
Epoch: Aug 26, 2026 • Age: 7 hours

現在のステータス

高度 469.5 km
遠地点 / 近地点 N/A
速度 7.64 km/s
衛星直下点 34.84°N, 154.74°E
打ち上げ日 Apr 7, 2026
運用期間 0.3 years
タイプ internet

技術仕様

分類 Payload
質量 575.00 kg
乾燥質量 530.00 kg
総質量 575.00 kg
長さ 0.30 m
直径 4.10 m
スパン 29.00 m
形状 Box + pan
製造者 SPXS
バスタイプ Starlink V2MO
フェーズステータス In Orbit
所有者/国 SPXS/US

Most Searched